User: anonymous   Login
Location: Unspecified
(0.0000°N, 0.0000°E)
Time: 21:58:03
(UTC+02:00)
Language:

Ariane H10 - Orbit

View from above orbital plane
View from above orbital plane
View from above satellite
View from above satellite

Ground track
Ground track

The orbit data is extracted from the following two-line orbital elements,

1 21815U 91084C   16125.25029087  .00000037  00000-0  22013-3 0  9998
2 21815   3.8087 254.9334 7184945  96.4640 342.2907  2.31659800202850
Epoch (UTC): 04 May 2016 06:00:25
Eccentricity: 0.7184945
inclination: 3.8087°
perigee height: 414 km
apogee height: 35083 km
right ascension of ascending node: 254.9334°
argument of perigee: 96.4640°
revolutions per day: 2.31659800
mean anomaly at epoch: 342.2907°
orbit number at epoch: 20285

The dashed part of the orbit path shows where the satellite is in the earth's shadow,  

DLR